[[{"header":{"parameterUnit":"m.s-1","parameterCategory":1,"la1":30.2991,"la2":30.254,"lo1":-89.0895,"lo2":-89.0444,"dy":0.0017,"dx":0.0017,"nx":28,"ny":28,"refTime":"2025-08-04T03:00:00:Z","depth":0,"parameterNumber":2,"parameterNumberName":"U-component_of_WINDS"},"data":[0,0,0,0,0,0,0,0,0,0,0,0,0,0,0,0,0,0,0,0,0,0,0,0,0,0,0,0,0,0,0,0,0,0,0,0,0,0,0,0,0,0,0,0,0,0,0,0,0,0,0,0,0,0,0,0,0,0,-0.3344,-0.3347,0,-0.3588,-0.3591,-0.3594,-0.3667,-0.3665,-0.3664,-0.3663,-0.3925,-0.3933,-0.3941,0,0,0,0,0,0,0,0,0,0,0,0,0,-0.2951,-0.2958,-0.3344,-0.3347,-0.335,-0.3588,-0.3591,-0.3595,-0.3667,-0.3665,-0.3664,-0.3662,-0.3923,-0.3932,-0.3942,0,0,0,0,0,0,0,0,0,0,0,0,0,-0.3151,-0.296,-0.3343,-0.3414,-0.3423,-0.3587,-0.3591,-0.3596,-0.3667,-0.3665,-0.3663,-0.3662,-0.392,-0.3931,-0.3944,-0.4058,0,0,-0.3981,-0.3986,0,0,0,0,0,0,0,0,-0.314,-0.3166,-0.3401,-0.341,-0.342,-0.3595,-0.3549,-0.3751,-0.3668,-0.3575,-0.3663,-0.3661,-0.3818,-0.3838,-0.3889,-0.4071,-0.4082,-0.3982,-0.399,-0.3995,-0.3998,0,0,0,0,0,0,0,-0.3126,-0.3156,-0.3441,-0.3404,-0.3416,-0.3438,-0.3464,-0.3588,-0.3705,-0.3583,-0.3589,-0.3616,-0.3823,-0.3877,-0.3896,-0.4086,-0.3982,-0.3993,-0.4,-0.4005,-0.4375,-0.4378,0,0,0,0,0,0,-0.3098,-0.3144,-0.3433,-0.3448,-0.3272,-0.3446,-0.3476,-0.3541,-0.3703,-0.3726,-0.3617,-0.3619,-0.3857,-0.3881,-0.3905,-0.4051,-0.3995,-0.4006,-0.4013,-0.4373,-0.4376,-0.4379,0,0,0,0,0,0,-0.3089,-0.3123,-0.3423,-0.3298,-0.3337,-0.3455,-0.3528,-0.3547,-0.3601,-0.3729,-0.3752,-0.365,-0.3856,-0.3888,-0.4019,-0.4061,-0.4012,-0.4023,-0.437,-0.4374,-0.4377,-0.4342,0,0,0,0,0,0,-0.3078,-0.312,-0.3162,-0.3298,-0.3344,-0.353,-0.353,-0.3553,-0.362,-0.3624,-0.3766,-0.3788,-0.3857,-0.4,-0.4031,-0.4077,-0.4033,-0.4367,-0.4372,-0.4376,-0.434,-0.4344,-0.4347,0,0,0,0,0,-0.3064,-0.3145,-0.3164,-0.3198,-0.3398,-0.3532,-0.3559,-0.3633,-0.3623,-0.3668,-0.3751,-0.3784,-0.4051,-0.4013,-0.4049,-0.4098,-0.4365,-0.437,-0.4376,-0.4338,-0.4343,-0.4347,0,0,0,0,0,0,-0.3015,-0.3164,-0.3187,-0.3313,-0.3409,-0.3544,-0.3603,-0.3635,-0.3739,-0.3739,-0.383,-0.3862,-0.3987,-0.4056,-0.4011,-0.4219,-0.4209,-0.4222,-0.4169,-0.4174,-0.4178,-0.4159,-0.4043,0,0,0,0,0,-0.3018,-0.311,-0.3237,-0.3337,-0.3383,-0.3484,-0.3546,-0.3594,-0.3698,-0.3741,-0.3833,-0.3936,-0.4044,-0.4113,-0.4219,-0.435,-0.4384,-0.4402,-0.4406,-0.4408,-0.4419,-0.4495,-0.4505,-0.4397,-0.4397,-0.4397,0,0,-0.3028,-0.312,-0.3174,-0.333,-0.3409,-0.3506,-0.3518,-0.3621,-0.3694,-0.3758,-0.3886,-0.3957,-0.4079,-0.421,-0.4273,-0.4272,-0.4456,-0.4415,-0.4416,-0.4426,-0.4501,-0.4512,-0.4521,-0.44,-0.44,-0.4399,0,0,-0.3094,-0.3172,-0.3264,-0.3343,-0.3462,-0.3528,-0.355,-0.368,-0.3729,-0.3858,-0.3907,-0.3999,-0.4181,-0.4266,-0.4333,-0.443,-0.4465,-0.4463,-0.4483,-0.4556,-0.4564,-0.4572,-0.4608,-0.462,-0.4472,-0.4472,-0.4472,0,-0.3092,-0.3236,-0.3308,-0.3407,-0.3475,-0.3532,-0.3628,-0.3702,-0.3851,-0.3899,-0.3894,-0.4124,-0.421,-0.4363,-0.4386,-0.4438,-0.4469,-0.4447,-0.4556,-0.4565,-0.4574,-0.4609,-0.4622,-0.4471,-0.4471,-0.4472,-0.4472,0,-0.3227,-0.3327,-0.3387,-0.3525,-0.36,-0.3697,-0.3788,-0.3856,-0.3897,-0.3965,-0.4098,-0.4202,-0.433,-0.437,-0.4414,-0.453,-0.4525,-0.4537,-0.453,-0.4582,-0.4617,-0.4631,-0.447,-0.447,-0.4471,-0.4471,0,0,-0.3272,-0.3446,-0.3467,-0.3531,-0.3666,-0.3746,-0.3847,-0.3968,-0.4025,-0.4126,-0.4215,-0.4367,-0.4379,-0.4455,-0.4509,-0.4572,-0.4644,-0.4577,-0.4581,-0.4587,-0.478,-0.477,-0.4785,-0.4667,-0.467,-0.4672,-0.477,0,-0.3356,-0.3533,-0.3601,-0.3747,-0.3841,-0.3897,-0.3985,-0.4079,-0.4145,-0.4238,-0.4313,-0.4419,-0.4426,-0.4472,-0.4537,-0.4621,-0.4684,-0.4615,-0.4754,-0.4758,-0.4722,-0.4803,-0.4794,-0.4881,-0.4784,-0.4786,-0.4788,0,-0.3478,-0.3576,-0.373,-0.3853,-0.3895,-0.3972,-0.4089,-0.4175,-0.4285,-0.4329,-0.4412,-0.4461,-0.4573,-0.4556,-0.4713,-0.4664,-0.4725,-0.4774,-0.478,-0.4797,-0.4777,-0.4824,-0.4911,-0.4924,-0.481,-0.4808,-0.4807,0,-0.3496,-0.3666,-0.3781,-0.3833,-0.3979,-0.4032,-0.4097,-0.4203,-0.4272,-0.4375,-0.4421,-0.4537,-0.4602,-0.4692,-0.4773,-0.4754,-0.4923,-0.4913,-0.4965,-0.4963,-0.5,-0.4996,-0.5099,-0.5036,-0.5036,-0.5036,-0.5036,0,-0.3584,-0.3676,-0.379,-0.3861,-0.3967,-0.4046,-0.415,-0.4219,-0.4313,-0.44,-0.4457,-0.4539,-0.4639,-0.4735,-0.48,-0.492,-0.4949,-0.499,-0.5006,-0.4986,-0.498,-0.5028,-0.5025,-0.5039,-0.5039,-0.5038,-0.5037,0,-0.3622,-0.3701,-0.383,-0.3956,-0.3991,-0.4063,-0.4174,-0.4246,-0.4314,-0.4424,-0.4455,-0.4563,-0.4679,-0.4767,-0.4919,-0.4963,-0.5091,-0.5108,-0.5052,-0.5061,-0.5108,-0.5103,-0.5246,-0.527,-0.5189,-0.519,-0.519,0,-0.3673,-0.3745,-0.3878,-0.3938,-0.4,-0.4098,-0.4167,-0.4248,-0.4318,-0.4447,-0.4505,-0.4623,-0.4722,-0.4905,-0.5,-0.5117,-0.5138,-0.518,-0.5156,-0.5133,-0.5141,-0.5135,-0.5144,-0.5184,-0.5184,-0.5184,-0.5185,0,-0.3756,-0.3791,-0.3886,-0.3995,-0.4075,-0.4166,-0.4258,-0.4305,-0.4404,-0.4481,-0.4597,-0.4673,-0.4826,-0.4944,-0.507,-0.5141,-0.5181,-0.5191,-0.5209,-0.519,-0.5155,-0.5175,-0.5062,-0.5188,-0.5188,-0.5187,-0.5187,-0.5187,-0.3804,-0.387,-0.3973,-0.4078,-0.4154,-0.4239,-0.4313,-0.4388,-0.4485,-0.4613,-0.4656,-0.4776,-0.4886,-0.5058,-0.513,-0.5228,-0.523,-0.5256,-0.5263,-0.5269,-0.5267,-0.5137,-0.5251,-0.5251,-0.5251,-0.5251,-0.5251,0,-0.389,-0.3958,-0.4053,-0.4178,-0.4261,-0.4286,-0.4389,-0.4458,-0.4562,-0.4658,-0.4753,-0.4888,-0.5002,-0.5105,-0.5225,-0.5284,-0.5306,-0.5313,-0.5311,-0.5327,-0.5258,-0.523,-0.5294,-0.5294,-0.5294,-0.5294,-0.5294,-0.5294,-0.3945,-0.4058,-0.4106,-0.4259,-0.4329,-0.4444,-0.4501,-0.458,-0.4657,-0.4803,-0.4897,-0.4961,-0.5062,-0.5189,-0.5296,-0.5324,-0.5367,-0.537,-0.5402,-0.5337,-0.5332,-0.5326,-0.5301,-0.5378,-0.5378,-0.5463,-0.5464,-0.5464]},{"header":{"parameterUnit":"m.s-1","parameterCategory":1,"la1":30.2991,"la2":30.254,"lo1":-89.0895,"lo2":-89.0444,"dy":0.0017,"dx":0.0017,"nx":28,"ny":28,"refTime":"2025-08-04T03:00:00:Z","depth":0,"parameterNumber":3,"parameterNumberName":"V-component_of_WINDS"},"data":[0,0,0,0,0,0,0,0,0,0,0,0,0,0,0,0,0,0,0,0,0,0,0,0,0,0,0,0,0,0,0,0,0,0,0,0,0,0,0,0,0,0,0,0,0,0,0,0,0,0,0,0,0,0,0,0,0,0,-1.8528,-1.8527,0,-1.8489,-1.8489,-1.8488,-1.8426,-1.8425,-1.8424,-1.8423,-1.8384,-1.8384,-1.8384,0,0,0,0,0,0,0,0,0,0,0,0,0,-1.8548,-1.8548,-1.8528,-1.8527,-1.8527,-1.8489,-1.8489,-1.8488,-1.8426,-1.8425,-1.8423,-1.8422,-1.8384,-1.8384,-1.8384,0,0,0,0,0,0,0,0,0,0,0,0,0,-1.8527,-1.8548,-1.8528,-1.8491,-1.8488,-1.8489,-1.8489,-1.8488,-1.8427,-1.8425,-1.8423,-1.8422,-1.8384,-1.8384,-1.8384,-1.8418,0,0,-1.8384,-1.8384,0,0,0,0,0,0,0,0,-1.8529,-1.8527,-1.8497,-1.8494,-1.849,-1.8461,-1.8481,-1.8465,-1.8427,-1.845,-1.8423,-1.8421,-1.8411,-1.8408,-1.8405,-1.8416,-1.8415,-1.8384,-1.8384,-1.8384,-1.8384,0,0,0,0,0,0,0,-1.853,-1.8528,-1.8513,-1.8497,-1.8492,-1.8477,-1.8472,-1.8478,-1.844,-1.8448,-1.8443,-1.8439,-1.8408,-1.8405,-1.8403,-1.8414,-1.8384,-1.8384,-1.8384,-1.8384,-1.845,-1.8452,0,0,0,0,0,0,-1.8537,-1.853,-1.8514,-1.8511,-1.8505,-1.8478,-1.8473,-1.8472,-1.844,-1.8434,-1.8441,-1.8437,-1.8406,-1.8404,-1.8402,-1.8439,-1.8384,-1.8384,-1.8384,-1.8448,-1.845,-1.8452,0,0,0,0,0,0,-1.8538,-1.8536,-1.8515,-1.8519,-1.8515,-1.8479,-1.8479,-1.8472,-1.8468,-1.8435,-1.8428,-1.8444,-1.8404,-1.8402,-1.8414,-1.8437,-1.8384,-1.8384,-1.8446,-1.8449,-1.8451,-1.8514,0,0,0,0,0,0,-1.8538,-1.8537,-1.8549,-1.852,-1.8515,-1.8529,-1.848,-1.8472,-1.8469,-1.8463,-1.8436,-1.843,-1.8403,-1.8414,-1.8414,-1.8436,-1.8384,-1.8444,-1.8447,-1.8451,-1.851,-1.8519,-1.8526,0,0,0,0,0,-1.8539,-1.8569,-1.855,-1.8549,-1.8531,-1.853,-1.8527,-1.8495,-1.8471,-1.8483,-1.8461,-1.8431,-1.8435,-1.8416,-1.8415,-1.8437,-1.8442,-1.8447,-1.845,-1.8506,-1.8517,-1.8526,0,0,0,0,0,0,-1.8602,-1.8565,-1.8543,-1.8564,-1.8551,-1.8519,-1.8534,-1.8507,-1.8501,-1.8495,-1.8456,-1.845,-1.8467,-1.8454,-1.8434,-1.8468,-1.8434,-1.8438,-1.8477,-1.8486,-1.8494,-1.8497,-1.8384,0,0,0,0,0,-1.8619,-1.8621,-1.8588,-1.861,-1.8604,-1.8571,-1.8569,-1.8545,-1.853,-1.8524,-1.8503,-1.8489,-1.8486,-1.8486,-1.8482,-1.8508,-1.8501,-1.8522,-1.8531,-1.8537,-1.8541,-1.8552,-1.8561,-1.8465,-1.8465,-1.8465,0,0,-1.8653,-1.8632,-1.8636,-1.8622,-1.8609,-1.8612,-1.8566,-1.8572,-1.8574,-1.8524,-1.8534,-1.8519,-1.85,-1.8519,-1.8527,-1.8508,-1.8566,-1.8542,-1.8548,-1.8548,-1.8557,-1.8567,-1.8575,-1.8468,-1.8467,-1.8467,0,0,-1.8715,-1.8701,-1.8717,-1.8704,-1.8684,-1.8662,-1.8666,-1.8638,-1.8626,-1.8635,-1.8598,-1.86,-1.8597,-1.8585,-1.8579,-1.8637,-1.8608,-1.8637,-1.8678,-1.869,-1.8698,-1.8704,-1.8724,-1.8731,-1.864,-1.8641,-1.8641,0,-1.876,-1.8763,-1.8728,-1.8736,-1.8731,-1.8686,-1.8701,-1.8691,-1.8671,-1.8669,-1.8648,-1.8643,-1.8628,-1.8643,-1.8657,-1.8654,-1.8656,-1.8639,-1.8699,-1.8706,-1.8711,-1.8729,-1.8737,-1.8644,-1.8644,-1.8643,-1.8643,0,-1.8818,-1.8822,-1.8837,-1.8818,-1.8815,-1.8827,-1.8793,-1.8793,-1.877,-1.875,-1.8759,-1.8739,-1.873,-1.8732,-1.8709,-1.8743,-1.8732,-1.8707,-1.8671,-1.8724,-1.8741,-1.8748,-1.8649,-1.8648,-1.8647,-1.8646,0,0,-1.892,-1.8881,-1.8888,-1.8878,-1.8853,-1.8855,-1.8864,-1.8855,-1.8856,-1.8844,-1.885,-1.8848,-1.8824,-1.8817,-1.8792,-1.8803,-1.8849,-1.8775,-1.8774,-1.8789,-1.8884,-1.8903,-1.8911,-1.883,-1.8831,-1.8832,-1.8885,0,-1.8977,-1.8991,-1.8959,-1.8981,-1.8983,-1.894,-1.8948,-1.8934,-1.8915,-1.8913,-1.8892,-1.8891,-1.886,-1.8855,-1.8863,-1.8841,-1.8867,-1.8837,-1.8835,-1.8835,-1.884,-1.892,-1.894,-1.8991,-1.8891,-1.8892,-1.8893,0,-1.9045,-1.9036,-1.9058,-1.903,-1.903,-1.9038,-1.9026,-1.9026,-1.9008,-1.8994,-1.8985,-1.8957,-1.8964,-1.893,-1.8938,-1.8919,-1.8916,-1.8905,-1.8906,-1.8904,-1.8867,-1.8919,-1.9007,-1.9014,-1.8903,-1.8902,-1.8901,0,-1.9116,-1.9109,-1.9121,-1.9114,-1.9083,-1.9089,-1.9077,-1.9057,-1.9053,-1.9043,-1.904,-1.9032,-1.9026,-1.902,-1.8989,-1.8968,-1.9001,-1.8965,-1.8988,-1.8989,-1.8997,-1.8997,-1.9084,-1.8997,-1.8997,-1.8997,-1.8996,0,-1.9182,-1.9197,-1.9152,-1.9159,-1.9174,-1.9138,-1.9153,-1.9136,-1.9119,-1.9122,-1.9085,-1.9089,-1.9048,-1.9047,-1.9023,-1.9033,-1.9032,-1.9019,-1.9013,-1.9022,-1.9024,-1.9019,-1.9014,-1.8998,-1.8998,-1.8998,-1.8997,0,-1.9263,-1.9233,-1.9243,-1.9213,-1.9206,-1.9218,-1.9192,-1.9197,-1.9175,-1.9179,-1.9178,-1.9145,-1.9141,-1.911,-1.91,-1.9084,-1.9102,-1.9089,-1.9108,-1.9104,-1.9128,-1.9126,-1.9215,-1.9225,-1.9133,-1.9134,-1.9134,0,-1.9307,-1.9317,-1.9288,-1.9287,-1.9276,-1.9275,-1.9271,-1.9235,-1.9232,-1.9213,-1.922,-1.9214,-1.9206,-1.9203,-1.9177,-1.9169,-1.9155,-1.9187,-1.9153,-1.9162,-1.9154,-1.9153,-1.9153,-1.9193,-1.9195,-1.9196,-1.9196,0,-1.9387,-1.9372,-1.9367,-1.9358,-1.9354,-1.9344,-1.9333,-1.9334,-1.9295,-1.9293,-1.9289,-1.9284,-1.9273,-1.9267,-1.9254,-1.924,-1.9212,-1.9207,-1.9212,-1.9221,-1.9231,-1.9225,-1.9127,-1.9205,-1.9204,-1.9204,-1.9203,-1.9203,-1.945,-1.9457,-1.9437,-1.9433,-1.942,-1.941,-1.9413,-1.9392,-1.9388,-1.9377,-1.9356,-1.9355,-1.9336,-1.9315,-1.9304,-1.9302,-1.9285,-1.9293,-1.9294,-1.9296,-1.9301,-1.9232,-1.93,-1.9299,-1.9299,-1.9299,-1.9299,0,-1.9528,-1.9513,-1.951,-1.9494,-1.9491,-1.9465,-1.945,-1.9449,-1.9448,-1.9433,-1.9427,-1.9421,-1.9415,-1.9389,-1.9379,-1.9383,-1.9369,-1.9381,-1.938,-1.9377,-1.9317,-1.9313,-1.9392,-1.9392,-1.9392,-1.9392,-1.9392,-1.9392,-1.9568,-1.9578,-1.956,-1.9563,-1.9548,-1.9546,-1.954,-1.953,-1.9518,-1.9514,-1.9508,-1.9491,-1.9471,-1.946,-1.9452,-1.9445,-1.9442,-1.9459,-1.9447,-1.9391,-1.9382,-1.9373,-1.9369,-1.9459,-1.9459,-1.9507,-1.9507,-1.9508]}]]